{"data":{"norad_id":52346,"epoch":"2026-09-20T02:18:48.641184Z","epoch_age_seconds":94503,"freshness":"FRESH","line1":"1 52346U 22045R   26263.09639631  .00000211  00000+0  18570-4 0  9997","line2":"2 52346  53.1615  35.6576 0001150  86.4467 273.6666 15.31699488245277","mean_motion":15.31699488,"eccentricity":0.000115,"inclination_deg":53.1615,"raan_deg":35.6576,"arg_perigee_deg":86.4467,"mean_anomaly_deg":273.6666,"bstar":1.857e-5,"rev_number":24527,"period_min":94.013219386804,"perigee_km":469.95390044146,"apogee_km":471.5291425014,"semimajor_km":6848.8785214714,"source":"CELESTRAK","updated_at":"2026-09-20T09:00:40.023969Z"}}